Location: Diebersbach
(48.5163°N, 8.0558°E)
Time: 12:41:44
(UTC+00:00)

Aureole 3 Rocket - Pass Details

Date: 20 June 2021
Orbit: 399 x 1739 km, 82.5° (Epoch: 30 July)

Event Time Altitude Azimuth Distance (km) Brightness Sun altitude
Rises 00:32:17 0° 357° (N) 2,560 7.7 -16.7°
Reaches altitude 10° 00:34:14 10° 5° (N) 1,782 6.7 -16.6°
Maximum altitude 00:37:55 43° 78° (ENE) 893 4.1 -16.4°
Enters shadow 00:42:17 12° 148° (SSE) 2,166 5.5 -16.2°
